Location: P�rn�nmaa
(61.1833°N, 23.0000°E)
Time: 18:54:27
(UTC+00:00)

Cosmos 1943 Rocket - Pass Details

Date: 08 December 2019
Orbit: 812 x 844 km, 71.0° (Epoch: 17 January)

Event Time Altitude Azimuth Distance (km) Brightness Sun altitude
Rises 15:04:06 0° 306° (NW) 3,415 5.7 -11.2°
Reaches altitude 10° 15:06:44 10° 314° (NW) 2,477 4.9 -11.5°
Maximum altitude 15:12:04 40° 24° (NNE) 1,239 2.7 -12.1°
Enters shadow 15:16:28 14° 89° (E) 2,157 3.8 -12.5°
